Probability
0 0 0 0 0 0 0 0 0 0 0 0 0 0 0 0 0 0 0 0 0 0 0 0 0 0 0 0 0 0 0 0 0 0 0 0 0 0 0 0 0 0 0
0 0 0 0 0 0 0 0 0 0 0 0 0 0 0 0 0 0 0 0 0 0 0 0 0 0 0 0 0 0 0 0 0 0 0 0 0 0 0 0 0 0 0
0 0 0 0 0 0 0 0 0 0 0 0 0 0 0 0 0 0 0 0 0 0 0 0 0 0 0 0 0 0 0 0 0 0 0 0 0 0 0 0 0 0 0
0 0 0 0 0 0 0 0 0 0 0 0 0 0 0 0 0 0 0 0 0 0 0 0 0 0 0 0 0 0 0 0 0 0 0 0 0 0 0 0 0 0 0
0 0 0 0 0 0 0 0 0 0 0 0 0 0 0 0 0 0 0 0 0 0 0 0 0 0 0 0 0 0 0 0 0 0 0 0 0 0 0 0 0 0 0
0 0 0 0 0 0 0 0 0 0 0 0 0 0 0 0 0 0 0 0 0 0 0 0 0 0 0 0 0 0 0 0 0 0 0 0 0 0 0 0 0 0 0
0 0 0 0 0 0 0 0 0 0 0 0 0 0 0 0 0 0 0 0 0 0 0 0 0 0 0 0 0 0 0 0 0 0 0 0 0 0 0 0 0 0 0
0 0 0 0 0 0 0 0 0 0 0 0 0 0 0 0 0 0 0 0 0 0 0 0 0 0 0 0 0 0 0 0 0 0 0 0 0 0 0 0 0 0 0
0 0 0 0 0 0 0 0 0 0 0 0 0 0 0 0 0 0 0 0 0 0 0 0 0 0 0 0 0 0 0 0 0 0 0 0 0 0 0 0 0 0 0
0 0 0 0 0 0 0 0 0 0 0 0 0 0 0 0 0 0 0 0 0 0 0 0 0 0 0 0 0 0 0 0 0 0 0 0 0 0 0 0 0 0 0
0 0 0 0 0 0 0 0 0 0 0 0 0 0 0 0 0 0 0 0 0 0 0 0 0 0 0 0 0 0 0 0 0 0 0 0 0 0 0 0 0 0 0
0 0 0 0 0 0 0 0 0 0 0 0 0 0 0 0 0 0 0 0 0 0 0 0 0 0 0 0 0 0 0 0 0 0 0 0 0 0 0 0 0 0 0
0 0 0 0 0 0 0 0 0 0 0 0 0 0 0 0 0 0 0 0 0 0 0 0 0 0 0 0 0 0 0 0 0 0 0 0 0 0 0 0 0 0 0
0 0 0 0 0 0 0 0 0 0 0 0 0 0 0 0 0 0 0 0 0 0 0 0 0 0 0 0 0 0 0 0 0 0 0 0 0 0 0 0 0 0 0
0 0 0 0 0 0 0 0 0 0 0 0 0 0 0 0 0 0 0 0 0 0 0 0 0 0 0 0 0 0 0 0 0 0 0 0 0 0 0 0 0 0 0
0 0 0 0 0 0 0 0 0 0 0 0 0 0 0 0 0 0 0 0 0 0 0 0 0 0 0 0 0 0 0 0 0 0 0 0 0 0 0 0 0 0 0
0 0 0 0 0 0 0 0 0 0 0 0 0 0 0 0 0 0 0 0 0 0 0 0 0 0 0 0 0 0 0 0 0 0 0 0 0 0 0 0 0 0 0
0 0 0 0 0 0 0 0 0 0 0 0 0 0 0 0 0 0 0 0 0 0 0 0 0 0 0 0 0 0 0 0 0 0 0 0 0 0 0 0 0 0 0
0 0 0 0 0 0 0 0 0 0 0 0 0 0 0 0 0 0 0 0 0 0 0 0 0 0 0 0 0 0 0 0 0 0 0 0 0 0 0 0 0 0 0
0 0 0 0 0 0 0 0 0 0 0 0 0 0 0 0 0 0 0 0 0 0 0 0 0 0 0 0 0 0 0 0 0 0 0 0 0 0 0 0 0 0 0
0 0 0 0 0 0 0 0 0 0 0 0 0 0 0 0 0 0 0 0 0 0 0 0 0 0 0 0 0 0 0 0 0 0 0 0 0 0 0 0 0 0 0
0 0 0 0 0 0 0 0 0 0 0 0 0 0 0 0 0 0 0 0 0 0 0 0 0 0 0 0 0 0 0 0 0 0 0 0 0 0 0 0 0 0 0
0 0 0 0 0 0 0 0 0 0 0 0 0 0 0 0 0 0 0 0 0 0 0 0 0 0 0 0 0 0 0 0 0 0 0 0 0 0 0 0 0 0 0
0 0 0 0 0 0 0 0 0 0 0 0 0 0 0 0 0 0 0 0 0 0 0 0 0 0 0 0 0 0 0 0 0 0 0 0 0 0 0 0 0 0 0
0 0 0 0 0 0 0 0 0 0 0 0 0 0 0 0 0 0 0 0 0 0 0 0 0 0 0 0 0 0 0 0 0 0 0 0 0 0 0 0 0 0 0
0 0 0 0 0 0 0 0 0 0 0 0 0 0 0 0 0 0 0 0 0 0 0 0 0 0 0 0 0 0 0 0 0 0 0 0 0 0 0 0 0 0 0
Wind_Speed
6 5 4 3 3 3 3 3 4 4 4 3 3 4 4 3 3 3 2 7 9 9 9 10 10 10 10 11 12 13 14 15 16 17 18 18 18 18 18 18 18 18 18
6 6 5 4 3 3 3 3 4 4 3 2 3 4 3 3 3 3 3 4 8 9 9 10 10 10 10 11 12 13 14 15 16 17 17 18 18 18 19 19 19 19 19
8 7 6 5 4 3 4 3 3 3 3 2 3 3 3 3 3 3 3 3 4 8 10 11 11 11 11 12 13 13 14 14 15 16 17 17 18 18 18 19 19 19 19
9 8 6 5 5 4 3 3 3 3 2 2 2 3 3 3 4 3 3 4 3 4 7 13 13 12 12 13 13 13 13 13 14 15 15 16 17 17 18 18 18 18 19
10 8 7 6 6 4 3 3 2 2 2 2 2 3 3 3 3 3 5 5 5 5 4 9 13 13 12 13 13 13 13 13 14 14 15 15 16 16 17 17 17 18 18
11 9 7 7 7 5 4 3 3 2 2 2 2 3 3 3 3 4 4 4 4 5 5 5 5 7 12 13 13 13 13 13 13 13 14 14 15 16 16 16 17 17 18
12 10 8 8 7 7 6 5 4 3 2 2 3 3 3 3 3 3 3 3 4 4 4 5 4 4 5 12 13 12 12 13 13 13 14 15 15 16 17 17 17 17 17
12 11 11 10 9 6 7 6 5 4 2 2 3 3 2 1 1 2 2 2 3 3 4 4 4 4 4 3 7 12 13 13 14 14 15 15 16 17 17 18 18 18 18
13 12 13 11 10 9 9 9 7 7 5 2 1 4 5 4 2 1 1 2 2 2 3 3 4 5 5 3 4 8 11 12 14 15 15 16 17 18 18 19 19 20 19
14 13 13 13 12 10 9 9 7 4 6 4 2 1 2 3 4 1 1 2 2 2 2 2 4 5 4 3 4 7 10 12 14 15 16 17 17 18 19 19 20 20 20
12 13 14 13 12 11 11 10 8 6 4 6 6 4 3 2 2 3 3 2 2 2 3 3 3 4 3 2 1 4 10 12 14 15 16 17 18 19 19 20 20 21 21
10 13 13 13 13 11 12 11 10 9 6 6 5 5 5 5 4 4 4 3 2 3 3 3 4 3 2 1 1 7 10 12 15 16 16 17 18 18 19 20 20 21 21
11 16 15 14 13 12 12 11 11 10 9 8 7 5 4 4 4 5 4 3 2 2 3 3 3 2 2 2 0 8 7 13 15 16 17 17 18 18 19 19 20 21 21
13 14 16 14 13 13 12 11 10 10 8 8 8 7 4 4 4 5 6 6 3 2 3 4 2 3 3 2 3 8 4 13 15 16 17 17 17 18 19 20 20 21 21
10 14 16 15 14 14 14 13 10 11 10 9 9 8 5 5 4 4 4 5 6 4 4 3 3 3 3 2 5 2 3 11 15 16 16 17 18 19 20 20 21 21 22
11 14 16 16 15 14 14 14 11 11 11 10 8 9 8 6 6 5 5 4 3 5 4 3 3 3 2 2 7 4 5 15 14 15 16 18 19 19 20 21 22 23 23
14 16 17 17 17 17 15 15 14 14 14 12 10 11 10 9 8 6 6 6 6 5 5 3 2 1 3 4 6 6 6 7 7 15 18 19 20 20 21 22 23 24 24
15 16 16 18 18 18 18 18 17 17 17 16 14 13 12 10 10 8 7 8 7 6 6 5 2 3 5 4 7 8 8 7 7 15 19 21 21 22 22 24 25 26 26
14 15 17 19 19 19 19 19 18 17 17 17 16 16 14 14 13 9 9 8 7 7 6 5 4 4 5 6 7 7 8 6 7 10 16 18 20 22 24 25 26 27 28
15 17 18 18 18 18 18 18 18 17 16 15 15 15 15 16 15 13 11 10 8 8 7 6 5 5 6 6 5 4 4 4 5 8 12 12 16 20 23 25 26 27 29
15 15 15 15 15 16 17 19 19 18 18 16 15 15 14 14 17 15 11 11 10 8 7 6 6 5 5 4 3 3 6 5 6 6 4 5 9 10 12 17 22 25 29
12 13 16 16 18 16 24 30 22 18 18 18 17 15 14 14 17 22 20 18 16 11 9 7 6 6 6 4 3 5 7 8 5 2 5 9 9 11 10 9 20 28 29
12 15 15 16 18 20 28 31 31 18 17 17 17 16 13 13 15 13 18 21 19 20 17 10 8 8 5 3 4 7 7 8 9 9 11 11 7 12 11 13 25 29 31
12 14 15 16 15 18 28 30 30 18 15 15 16 17 16 16 16 16 13 11 10 10 11 7 5 4 5 5 7 8 9 8 9 9 8 9 8 11 11 10 22 29 31
11 12 12 14 15 16 27 29 29 13 13 15 14 15 16 16 23 24 15 12 11 9 12 14 13 11 12 12 9 4 3 5 6 5 3 5 8 12 12 11 14 24 28
10 10 10 12 13 12 23 30 31 12 12 12 12 13 16 17 24 26 15 13 12 10 8 7 8 8 6 6 10 6 4 4 4 5 3 4 7 10 12 7 7 10 14
Wind_Direction
164 157 152 149 148 146 148 145 136 125 113 97 83 78 68 57 49 45 33 48 55 51 52 53 51 48 48 48 48 46 46 45 41 35 31 26 22 20 18 15 12 9 6
165 162 157 158 162 164 162 155 144 131 117 105 81 71 68 54 43 45 45 51 60 59 56 56 53 50 49 49 45 42 39 38 35 31 27 24 20 16 14 11 8 6 4
170 164 160 164 168 163 156 143 129 114 107 94 73 61 57 48 47 48 52 56 56 56 62 62 57 52 49 45 39 34 30 29 28 24 22 20 16 13 11 8 4 2 359
170 163 165 168 160 157 159 154 140 110 91 79 65 46 43 45 50 56 61 61 60 54 57 67 60 53 46 38 30 24 20 18 19 17 16 14 12 10 8 5 2 360 358
173 169 170 161 155 157 167 165 137 134 123 96 71 57 44 48 50 61 62 60 64 68 61 63 55 46 38 31 22 15 13 13 14 13 12 11 9 8 5 2 360 357 356
176 169 164 160 156 160 173 171 141 118 116 122 89 65 47 47 64 54 52 56 64 72 67 58 44 32 27 22 15 12 13 15 14 11 9 8 6 4 1 358 356 353 352
175 171 167 163 167 175 176 164 146 141 135 155 115 76 42 52 75 47 40 58 59 63 61 49 37 29 12 14 11 15 18 18 15 11 8 5 2 358 355 352 350 348 347
175 177 171 174 174 168 172 182 169 150 142 162 140 120 87 23 39 35 26 59 49 43 39 28 17 11 8 11 3 15 19 16 12 9 6 2 357 353 349 346 344 342 340
180 180 177 174 175 176 185 189 187 165 149 148 152 144 152 197 229 331 6 7 13 27 12 355 352 345 347 360 354 4 14 11 7 3 358 354 349 345 342 339 336 334 332
184 182 177 177 178 181 184 189 189 187 146 148 137 66 100 146 156 205 307 336 349 342 319 308 321 317 327 342 350 0 5 3 359 353 349 344 340 338 335 332 330 327 325
186 183 179 180 182 185 186 183 184 189 169 153 153 149 124 63 86 152 212 288 327 295 267 256 277 288 302 326 341 356 357 352 348 344 340 337 334 331 329 326 324 322 320
187 189 184 186 187 186 186 186 186 186 180 161 160 159 157 156 172 166 180 203 250 285 269 262 259 257 249 180 34 0 348 342 337 334 331 329 326 325 323 322 320 318 315
192 194 190 190 190 188 185 182 185 190 184 177 174 176 170 160 149 149 148 158 202 268 281 266 241 224 185 146 47 348 342 331 327 325 324 323 322 320 319 318 316 315 313
196 187 191 192 190 185 184 183 187 190 186 184 181 172 168 166 157 151 155 149 164 235 255 254 244 202 164 151 314 337 330 320 317 317 319 319 318 316 315 315 314 312 310
185 183 187 189 188 186 185 182 189 189 186 189 184 178 172 171 165 156 152 155 156 182 229 227 212 183 174 190 311 305 275 304 311 314 314 314 313 313 312 312 311 310 308
182 181 186 189 187 188 187 186 188 185 184 187 180 179 178 171 168 170 172 170 159 160 209 226 227 196 242 295 303 302 289 305 308 307 309 310 309 310 311 311 309 308 306
186 185 187 188 188 189 189 190 191 183 186 185 183 184 184 171 172 173 173 178 180 171 203 238 260 268 297 293 300 293 287 288 291 303 307 307 308 310 310 309 307 305 304
193 190 187 189 191 192 191 193 193 188 189 188 187 185 185 177 177 177 181 186 186 183 188 208 234 246 248 262 274 278 284 286 286 297 302 305 309 309 308 306 305 304 302
196 192 190 193 194 193 194 196 194 192 193 191 187 187 185 179 183 181 183 186 186 188 188 195 215 226 243 241 246 249 253 257 266 282 293 299 302 303 304 303 303 302 301
200 198 198 198 196 193 194 194 193 193 194 192 189 188 184 185 185 180 184 187 183 187 189 201 218 231 240 237 239 246 268 241 260 277 280 290 297 300 298 298 298 298 296
206 201 200 200 196 195 195 193 193 192 191 190 188 188 187 185 187 182 182 183 182 186 186 197 212 225 237 242 261 279 303 301 279 260 268 287 293 289 288 289 291 289 288
206 201 203 202 201 203 203 198 192 192 190 189 187 185 182 179 188 190 193 192 190 185 186 192 208 226 242 253 283 305 311 321 315 254 293 296 291 290 290 284 288 289 288
204 207 208 205 209 210 205 202 198 190 191 191 187 181 180 182 182 186 196 197 200 204 199 192 209 225 240 248 288 297 295 297 291 304 309 295 285 288 289 289 292 291 290
210 210 210 209 211 212 208 204 199 192 192 191 188 183 180 177 183 182 187 197 201 212 219 222 224 230 237 249 254 271 288 294 291 288 294 288 296 292 293 287 290 289 289
217 215 210 208 210 210 210 205 196 186 189 190 186 183 181 176 183 182 181 190 200 212 223 224 228 237 250 267 279 291 298 303 295 289 274 269 295 307 297 284 282 288 290
222 214 214 209 207 205 210 206 195 181 184 183 181 183 182 178 182 182 180 185 197 201 201 217 233 250 263 277 283 275 263 262 273 291 278 270 295 318 305 278 281 289 290